Date,TemperatureHighF,TemperatureAvgF,TemperatureLowF,DewpointHighF,DewpointAvgF,DewpointLowF,HumidityHigh,HumidityAvg,HumidityLow,PressureMaxIn,PressureMinIn,WindSpeedMaxMPH,WindSpeedAvgMPH,GustSpeedMaxMPH,PrecipitationSumIn
2013-8-1,94.2,78.1,55.1,46.0,23.2,-23.0,42,21,1,30.11,29.98,17,4,20,0.00
2013-8-2,92.2,76.2,53.7,47.0,37.9,11.0,60,30,5,30.08,29.99,15,5,23,0.00
2013-8-3,94.7,78.0,54.2,46.0,31.4,-8.0,61,26,2,30.11,30.01,16,3,23,0.00
2013-8-4,96.5,80.7,55.3,42.8,23.9,-6.0,46,18,2,30.13,30.02,15,4,20,0.00
2013-8-5,94.9,80.5,54.3,32.0,18.5,0.0,36,13,3,30.12,30.01,15,5,22,0.00
2013-8-6,95.1,78.3,55.4,28.0,14.4,-10.0,25,11,2,30.12,30.04,19,5,23,0.00
2013-8-7,93.4,78.6,57.7,41.0,29.2,17.0,32,18,8,30.14,30.04,13,4,18,0.00
2013-8-8,89.1,76.4,59.1,36.0,28.8,15.0,37,19,7,30.11,30.00,17,6,22,0.00
2013-8-9,88.0,73.8,51.9,45.0,27.4,8.0,38,20,5,30.09,29.99,19,5,28,0.00
2013-8-10,92.5,73.1,50.8,39.0,30.5,18.0,56,26,7,30.16,30.05,14,3,21,0.00
2013-8-11,93.6,78.0,52.4,42.0,34.1,25.0,48,23,9,30.15,30.00,13,3,18,0.00
2013-8-12,97.8,78.1,53.5,40.0,33.0,23.0,51,23,7,30.11,30.00,12,2,16,0.00
2013-8-13,100.4,80.1,55.3,39.0,30.0,16.0,41,20,5,30.12,29.99,11,2,16,0.00
2013-8-14,101.7,82.3,56.1,37.0,24.3,-17.0,33,16,1,30.10,29.96,14,3,17,0.00
2013-8-15,99.9,83.4,61.9,47.0,39.1,29.0,35,22,11,30.08,29.97,13,3,23,0.00
2013-8-16,99.7,84.4,64.5,52.0,46.4,39.0,42,28,18,30.10,29.98,19,4,22,0.00
2013-8-17,101.2,86.2,65.6,52.0,47.3,39.0,52,28,13,30.07,29.91,18,4,19,0.00
2013-8-18,101.1,85.3,64.3,57.5,49.1,38.0,42,29,19,30.05,29.90,18,4,20,0.00
2013-8-19,95.5,85.0,75.6,62.0,56.6,53.0,57,39,24,30.07,29.94,10,3,13,0.00
2013-8-20,99.3,83.6,67.6,58.0,45.9,17.0,64,33,5,30.03,29.94,17,4,23,0.00
2013-8-21,98.7,85.7,66.4,47.0,42.4,33.0,38,23,12,30.04,29.94,14,4,22,0.00
2013-8-22,101.3,86.5,68.5,46.0,41.0,36.0,34,21,14,30.06,29.91,14,4,21,0.00
2013-8-23,96.5,84.0,65.1,53.0,37.2,28.0,33,20,9,30.00,29.86,13,4,23,0.00
2013-8-24,96.7,80.8,59.3,52.0,35.0,18.0,41,23,6,30.01,29.89,15,4,22,0.00
2013-8-25,94.7,81.5,62.4,62.3,50.4,36.0,69,38,15,30.09,29.95,16,4,21,0.00
2013-8-26,82.7,74.4,67.4,65.0,62.7,60.0,84,68,48,30.11,30.02,13,2,17,0.00
2013-8-27,95.1,78.8,63.6,65.0,60.4,54.0,90,58,28,30.07,29.92,11,2,15,0.00
2013-8-28,97.4,82.9,65.1,59.0,56.2,53.0,66,42,25,30.05,29.93,15,4,25,0.00
2013-8-29,97.6,83.9,67.5,64.0,57.3,51.0,56,41,30,30.12,30.03,14,2,18,0.00
2013-8-30,95.1,81.4,71.6,71.0,63.4,57.0,74,55,33,30.14,30.04,10,2,19,0.01
2013-8-31,91.5,81.5,75.5,67.0,64.3,61.0,72,57,38,30.11,29.99,18,5,24,0.00